Weather History for Chicago Executive, IL

Change the Weather History Date:

Monday, February 4, 2013

  Actual Average Record
Temperature  
Mean Temperature 21 °F 25 °F  
Max Temperature 28 °F 32 °F 51 °F (2005)
Min Temperature 13 °F 18 °F -7 °F (2007)
Degree Days  
Heating Degree Days 44 40  
Month to date heating degree days 201 161  
Since 1 July heating degree days 3621 3858  
Cooling Degree Days 0 0  
Month to date cooling degree days 0 0  
Year to date cooling degree days 0 0  
Moisture  
Dew Point 18 °F    
Average Humidity 85    
Maximum Humidity 93    
Minimum Humidity 70    
Precipitation  
Precipitation T in 0.03 in 0.18 in (2008)
Month to date precipitation T 0.12  
Year to date precipitation 3.40 1.75  
Sea Level Pressure  
Sea Level Pressure 29.94 in    
Wind  
Wind Speed 6 mph (NNE)    
Max Wind Speed 16 mph    
Max Gust Speed 21 mph    
Visibility 5 miles    
Events Snow    
T = Trace of Precipitation, MM = Missing Value Source: NWS Daily Summary

Daily Weather History Graph

Daily Weather History Graph

Search for Another Location

Airport:

Trip Planner

Search our weather history database for the weather conditions in past years. The results will help you decide how hot, cold, wet, or windy it might be!

Date:

Astronomy

Feb. 04, 2013 Rise Set
Actual Time 7:01 AM CST 5:10 PM CST
Civil Twilight 6:31 AM CST 5:39 PM CST
Nautical Twilight 5:58 AM CST 6:13 PM CST
Astronomical Twilight 5:25 AM CST 6:45 PM CST
Moon 1:37 AM CST (2/4) 11:32 AM CST (2/4)
Length of Visible Light 11h 08m
Length of Day
10h 09m
Last Quarter, 37% of the Moon is Illuminated
Feb 4
Last Quarter
Feb 10
New
Feb 17
First Quarter
Feb 25
Full
Mar 4
Last Quarter

Hourly Weather History & Observations

Time (CST) Temp. Windchill Dew Point Humidity Pressure Visibility Wind Dir Wind Speed Gust Speed Precip Events Conditions
12:52 AM 19.9 °F - 17.1 °F 89% 30.04 in 1.2 mi Calm Calm - 0.00 in Snow Light Snow
1:52 AM 19.9 °F 14.9 °F 18.0 °F 92% 30.02 in 2.0 mi East 3.5 mph - 0.00 in Snow Light Snow
2:02 AM 19.4 °F 14.3 °F 17.6 °F 93% 29.98 in 1.8 mi East 3.5 mph - 0.00 in Snow Light Snow
2:52 AM 19.9 °F 14.9 °F 18.0 °F 92% 29.99 in 1.0 mi East 3.5 mph - 0.00 in Snow Light Snow
3:07 AM 19.4 °F 14.3 °F 17.6 °F 93% 29.95 in 0.8 mi East 3.5 mph - 0.00 in Snow Light Snow
5:00 AM 21.2 °F - 19.4 °F 93% 29.92 in 1.0 mi Calm Calm - 0.00 in Snow Light Snow
5:30 AM 21.2 °F 16.4 °F 19.4 °F 93% 29.93 in 0.8 mi NE 3.5 mph - 0.00 in Snow Light Snow
5:52 AM 21.9 °F 14.5 °F 19.0 °F 89% 29.96 in 1.0 mi NE 5.8 mph - 0.00 in Snow Light Snow
6:01 AM 21.2 °F 14.9 °F 19.4 °F 93% 29.92 in 1.5 mi ENE 4.6 mph - 0.00 in Snow Light Snow
6:22 AM 21.2 °F 13.6 °F 19.4 °F 93% 29.92 in 1.0 mi NE 5.8 mph - 0.00 in Snow Light Snow
6:32 AM 21.2 °F 14.9 °F 19.4 °F 93% 29.92 in 1.2 mi NE 4.6 mph - 0.00 in Snow Light Snow
6:52 AM 23.0 °F 15.8 °F 21.0 °F 92% 29.94 in 1.8 mi ENE 5.8 mph - 0.00 in Snow Light Snow
7:49 AM 24.8 °F 16.9 °F 21.2 °F 86% 29.90 in 7.0 mi NE 6.9 mph - 0.00 in   Overcast
7:52 AM 24.1 °F 17.0 °F 21.9 °F 91% 29.93 in 7.0 mi ENE 5.8 mph - 0.00 in   Overcast
8:38 AM 24.8 °F 19.1 °F 23.0 °F 93% 29.90 in 1.8 mi ENE 4.6 mph - 0.00 in Snow Light Snow
8:44 AM 24.8 °F 19.1 °F 23.0 °F 93% 29.90 in 1.2 mi NE 4.6 mph - 0.00 in Snow Light Snow
8:52 AM 25.0 °F 19.3 °F 23.0 °F 92% 29.93 in 2.0 mi NE 4.6 mph - 0.00 in Snow Light Snow
9:49 AM 26.6 °F 22.6 °F 23.0 °F 86% 29.89 in 8.0 mi NE 3.5 mph - 0.00 in   Overcast
9:52 AM 27.0 °F 21.6 °F 23.0 °F 85% 29.92 in 8.0 mi ENE 4.6 mph - 0.00 in   Overcast
10:52 AM 27.0 °F 23.0 °F 21.9 °F 81% 29.91 in 6.0 mi NE 3.5 mph - N/A   Haze
11:52 AM 28.0 °F 19.3 °F 23.0 °F 81% 29.91 in 5.0 mi NNE 9.2 mph - 0.00 in Snow Light Snow
12:52 PM 27.0 °F 16.7 °F 23.0 °F 85% 29.90 in 7.0 mi North 11.5 mph - 0.00 in   Overcast
1:19 PM 26.6 °F 15.2 °F 21.2 °F 80% 29.88 in 9.0 mi North 13.8 mph 20.7 mph N/A   Overcast
1:52 PM 28.0 °F 18.1 °F 23.0 °F 81% 29.91 in 4.0 mi NNE 11.5 mph - 0.00 in Snow Light Snow
2:52 PM 27.0 °F 17.3 °F 21.0 °F 78% 29.93 in 9.0 mi NNE 10.4 mph - 0.00 in   Overcast
3:52 PM 25.0 °F 16.3 °F 19.9 °F 81% 29.91 in 6.0 mi North 8.1 mph - N/A   Haze
4:01 PM 24.8 °F 15.3 °F 19.4 °F 80% 29.88 in 9.0 mi North 9.2 mph 19.6 mph N/A   Overcast
4:52 PM 23.0 °F 11.7 °F 18.0 °F 81% 29.94 in 9.0 mi North 11.5 mph - N/A   Overcast
5:52 PM 21.9 °F 11.7 °F 17.1 °F 82% 29.97 in 10.0 mi NNW 9.2 mph - N/A   Overcast
6:52 PM 19.9 °F 9.3 °F 15.1 °F 81% 29.99 in 10.0 mi NNW 9.2 mph - N/A   Overcast
7:52 PM 19.0 °F 11.1 °F 12.9 °F 77% 29.99 in 10.0 mi NNW 5.8 mph - N/A   Overcast
8:06 PM 19.4 °F 12.8 °F 12.2 °F 74% 29.96 in 10.0 mi NNW 4.6 mph - N/A   Scattered Clouds
8:52 PM 18.0 °F 7.7 °F 12.0 °F 78% 30.01 in 10.0 mi NNW 8.1 mph - N/A   Clear
9:52 PM 17.1 °F 5.8 °F 10.0 °F 74% 30.00 in 10.0 mi NNW 9.2 mph - N/A   Clear
10:52 PM 15.1 °F 7.7 °F 7.0 °F 70% 29.99 in 10.0 mi NNW 4.6 mph - N/A   Clear
11:52 PM 12.9 °F 6.9 °F 5.0 °F 71% 30.00 in 10.0 mi West 3.5 mph - N/A   Clear